Year,Month,Day,Hour,Minute,Value (Times are PST for temperature in C)
2020,04,17,07,22,26.90
2020,04,17,07,23,26.90
2020,04,17,07,24,26.90
2020,04,17,07,25,26.90
2020,04,17,07,26,26.90
2020,04,17,07,27,26.90
2020,04,17,07,28,26.90
2020,04,17,07,29,26.90
2020,04,17,07,30,26.90
2020,04,17,07,31,26.90
2020,04,17,07,32,26.90
2020,04,17,08,06,27.80
2020,04,17,08,07,27.80
2020,04,17,08,08,27.80
2020,04,17,08,09,27.80
2020,04,17,08,10,27.80
2020,04,17,08,11,27.80
2020,04,17,08,12,27.80
2020,04,17,08,13,27.80
2020,04,17,08,14,27.80
2020,04,17,08,15,27.80
2020,04,17,08,16,27.80
2020,04,17,08,17,27.80
2020,04,17,09,24,28.90
2020,04,17,09,25,28.90
2020,04,17,09,26,28.90
2020,04,17,09,27,28.90
2020,04,17,09,28,28.90
2020,04,17,09,29,28.90
2020,04,17,09,30,28.90
2020,04,17,09,31,28.90
2020,04,17,09,32,29.00
2020,04,17,09,33,29.20
2020,04,17,09,34,29.20
2020,04,17,09,35,29.10
2020,04,17,09,36,29.10
2020,04,17,09,37,29.10
2020,04,17,09,38,29.10
2020,04,17,09,39,29.10
2020,04,17,09,40,29.10
2020,04,17,09,41,29.10
2020,04,17,09,42,29.30
2020,04,17,09,43,29.60
2020,04,17,09,44,29.50
2020,04,17,09,45,29.50
2020,04,17,09,46,29.50
2020,04,17,09,47,29.50
2020,04,17,09,48,29.50
2020,04,17,09,49,29.50
2020,04,17,09,50,29.50
2020,04,17,09,51,29.50
2020,04,17,09,52,29.50
2020,04,17,09,53,29.50
2020,04,17,09,54,29.50
2020,04,17,12,26,38.50
2020,04,17,12,27,38.60
2020,04,17,12,28,38.80
2020,04,17,12,29,38.90
2020,04,17,12,30,39.00
2020,04,17,12,31,39.00
2020,04,17,12,32,39.10
2020,04,17,12,33,39.00
2020,04,17,12,34,39.00
2020,04,17,12,35,38.90
2020,04,17,12,36,38.90
2020,04,17,12,37,38.80
2020,04,17,12,38,38.90
2020,04,17,12,39,38.90
2020,04,17,12,40,38.90
2020,04,17,12,41,39.00
2020,04,17,12,42,39.10
2020,04,17,12,43,39.30
2020,04,17,12,44,39.50
2020,04,17,12,45,39.80
2020,04,17,12,46,40.20
2020,04,17,12,47,40.50
2020,04,17,12,48,40.70
2020,04,17,12,49,41.00
2020,04,17,12,50,41.20
2020,04,17,12,51,41.40
2020,04,17,12,52,41.60
2020,04,17,12,53,41.70
2020,04,17,12,54,41.80
2020,04,17,12,55,41.80
2020,04,17,12,56,41.90
2020,04,17,12,57,42.00
2020,04,17,12,58,42.10
2020,04,17,12,59,42.30
2020,04,17,13,00,42.40
2020,04,17,13,01,42.50
2020,04,17,13,02,42.60
2020,04,17,13,03,42.70
2020,04,17,13,04,42.70
2020,04,17,13,05,42.70
2020,04,17,13,06,42.80
2020,04,17,13,07,42.80
2020,04,17,13,08,42.70
2020,04,17,13,09,42.60
2020,04,17,13,10,42.50
2020,04,17,13,11,42.30
2020,04,17,13,12,42.20
2020,04,17,13,13,42.20
2020,04,17,13,14,42.20
2020,04,17,13,15,42.10
2020,04,17,13,16,42.10
2020,04,17,13,17,42.10
2020,04,17,13,18,42.10
2020,04,17,13,19,42.10
2020,04,17,13,20,42.10
2020,04,17,13,21,42.10
2020,04,17,13,22,42.10
2020,04,17,13,23,42.10
2020,04,17,13,24,42.20
2020,04,17,13,25,42.30
2020,04,17,13,26,42.30
2020,04,17,13,27,42.30
2020,04,17,13,28,42.40
2020,04,17,13,29,42.40
2020,04,17,13,30,42.50
2020,04,17,13,31,42.50
2020,04,17,13,32,42.60
2020,04,17,13,33,42.60
2020,04,17,13,34,42.60
2020,04,17,13,35,42.60
2020,04,17,13,36,42.50
2020,04,17,13,37,42.40
2020,04,17,13,38,42.20
2020,04,17,13,39,42.20
2020,04,17,13,40,42.10
2020,04,17,13,41,42.10
2020,04,17,13,42,42.10
2020,04,17,13,43,42.00
2020,04,17,13,44,42.10
2020,04,17,13,45,42.10
2020,04,17,13,46,42.10
2020,04,17,13,47,42.20
2020,04,17,13,48,42.20
2020,04,17,13,49,42.20
2020,04,17,13,50,42.10
2020,04,17,13,51,41.90
2020,04,17,13,52,41.80
2020,04,17,13,53,41.70
2020,04,17,13,54,41.70
2020,04,17,13,55,41.60
2020,04,17,13,56,41.50
2020,04,17,13,57,41.50
2020,04,17,13,58,41.40
2020,04,17,13,59,41.20
2020,04,17,14,00,41.00
2020,04,17,14,01,40.80
2020,04,17,14,02,40.60
2020,04,17,14,03,40.40
2020,04,17,14,04,40.20
2020,04,17,14,05,40.20
2020,04,17,14,06,40.20
2020,04,17,14,07,40.40
2020,04,17,14,08,40.50
2020,04,17,14,09,40.40
2020,04,17,14,10,40.30
2020,04,17,14,11,40.30
2020,04,17,14,12,40.30
2020,04,17,14,13,40.30
2020,04,17,14,14,40.30
2020,04,17,14,15,40.40
2020,04,17,14,16,40.50
2020,04,17,14,17,40.60
2020,04,17,14,18,40.80
2020,04,17,14,19,41.00
2020,04,17,14,20,41.20
2020,04,17,14,21,41.50
2020,04,17,14,22,41.70
2020,04,17,14,23,41.90
2020,04,17,14,24,42.00
2020,04,17,14,25,42.10
2020,04,17,14,26,42.20
2020,04,17,14,27,42.20
2020,04,17,14,28,42.20
2020,04,17,14,29,42.30
2020,04,17,14,30,42.30
2020,04,17,14,31,42.30
2020,04,17,14,32,42.30
2020,04,17,14,33,42.30
2020,04,17,14,34,42.30
2020,04,17,14,35,42.40
2020,04,17,14,36,42.40
2020,04,17,14,37,42.50
2020,04,17,14,38,42.40
2020,04,17,14,39,42.30
2020,04,17,14,40,42.20
2020,04,17,14,41,42.10
2020,04,17,14,42,41.90
2020,04,17,14,43,41.80
2020,04,17,14,44,41.70
2020,04,17,14,45,41.60
2020,04,17,14,46,41.50
2020,04,17,14,47,41.30
2020,04,17,14,48,41.00
2020,04,17,14,49,40.70
2020,04,17,14,50,40.40
2020,04,17,14,51,40.10
2020,04,17,14,52,40.00
2020,04,17,14,53,39.90
2020,04,17,14,54,39.90
2020,04,17,14,55,39.80
2020,04,17,14,56,39.80
2020,04,17,14,57,39.70
2020,04,17,14,58,39.70
2020,04,17,14,59,39.70
2020,04,17,15,00,39.60
2020,04,17,15,01,39.50
2020,04,17,15,02,39.60
2020,04,17,15,03,39.50
2020,04,17,15,04,39.50
2020,04,17,15,05,39.40
2020,04,17,15,06,39.40
2020,04,17,15,07,39.40
2020,04,17,15,08,39.30
2020,04,17,15,09,39.30
2020,04,17,15,10,39.40
2020,04,17,15,11,39.40
2020,04,17,15,12,39.40
2020,04,17,15,13,39.40
2020,04,17,15,14,39.50
2020,04,17,15,15,39.40
2020,04,17,15,16,39.40
2020,04,17,15,17,39.30
2020,04,17,15,18,39.20
2020,04,17,15,19,39.00
2020,04,17,15,20,38.90
2020,04,17,15,21,38.80
2020,04,17,15,22,38.80
2020,04,17,15,23,38.70
2020,04,17,15,24,38.60
2020,04,17,15,25,38.50
2020,04,17,15,26,38.50
2020,04,17,15,27,38.40
2020,04,17,15,28,38.40
2020,04,17,15,29,38.30
2020,04,17,15,30,38.20
2020,04,17,15,31,38.20
2020,04,17,15,32,38.10
2020,04,17,15,33,38.10
2020,04,17,15,34,38.00
2020,04,17,15,35,38.00
2020,04,17,15,36,38.10
2020,04,17,15,37,38.10
2020,04,17,15,38,38.20
2020,04,17,15,39,38.30
2020,04,17,15,40,38.40
2020,04,17,15,41,38.60
2020,04,17,15,42,38.70
2020,04,17,15,43,38.90
2020,04,17,15,44,39.00
2020,04,17,15,45,39.10
2020,04,17,15,46,39.30
2020,04,17,15,47,39.40
2020,04,17,15,48,39.60
2020,04,17,15,49,39.60
2020,04,17,15,50,39.70
2020,04,17,15,51,39.70
2020,04,17,15,52,39.80
2020,04,17,15,53,39.80
2020,04,17,15,54,39.80
2020,04,17,15,55,39.80
2020,04,17,15,56,39.70
2020,04,17,15,57,39.70
2020,04,17,15,58,39.70
2020,04,17,15,59,39.80
2020,04,17,16,00,39.80
2020,04,17,16,01,39.80
2020,04,17,16,02,39.80
2020,04,17,16,03,39.80
2020,04,17,16,04,39.70
2020,04,17,16,05,39.70
2020,04,17,16,06,39.60
2020,04,17,16,07,39.50
2020,04,17,16,08,39.40
2020,04,17,16,09,39.40
2020,04,17,16,10,39.40
2020,04,17,16,11,39.30
2020,04,17,16,12,39.30
2020,04,17,16,13,39.30
2020,04,17,16,14,39.20
2020,04,17,16,15,39.20
2020,04,17,16,16,39.20
2020,04,17,16,17,39.20
2020,04,17,16,18,39.20
2020,04,17,16,19,39.10
2020,04,17,16,20,39.00
2020,04,17,16,21,38.90
2020,04,17,16,22,38.80
2020,04,17,16,23,38.70
2020,04,17,16,24,38.60
2020,04,17,16,25,38.50
2020,04,17,16,26,38.40
2020,04,17,16,27,38.40
2020,04,17,16,28,38.40
2020,04,17,16,29,38.40
2020,04,17,16,30,38.40
2020,04,17,16,31,38.30
2020,04,17,16,32,38.30
2020,04,17,16,33,38.20
2020,04,17,16,34,38.20
2020,04,17,16,35,38.10
2020,04,17,16,36,38.00
2020,04,17,16,37,38.00
2020,04,17,16,38,37.90
2020,04,17,16,39,37.80
2020,04,17,16,40,37.80
2020,04,17,16,41,37.80
2020,04,17,16,42,37.80
2020,04,17,16,43,37.80
2020,04,17,16,44,37.80
2020,04,17,16,45,37.90
2020,04,17,16,46,37.90
2020,04,17,16,47,38.00
2020,04,17,16,48,38.10
2020,04,17,16,49,38.20
2020,04,17,16,50,38.30
2020,04,17,16,51,38.50
2020,04,17,16,52,38.70
2020,04,17,16,53,38.90
2020,04,17,16,54,39.10
2020,04,17,16,55,39.20
2020,04,17,16,56,39.30
2020,04,17,16,57,39.40
2020,04,17,16,58,39.50
2020,04,17,16,59,39.60
2020,04,17,17,00,39.60
2020,04,17,17,01,39.60
2020,04,17,17,02,39.60
2020,04,17,17,03,39.60
2020,04,17,17,04,39.60
2020,04,17,17,05,39.60
2020,04,17,17,06,39.60
2020,04,17,17,07,39.60
2020,04,17,17,08,39.50
2020,04,17,17,09,39.50
2020,04,17,17,10,39.40
2020,04,17,17,11,39.40
2020,04,17,17,12,39.40
2020,04,17,17,13,39.40
2020,04,17,17,14,39.40
2020,04,17,17,15,39.30
2020,04,17,17,16,39.30
2020,04,17,17,17,39.30
2020,04,17,17,18,39.30
2020,04,17,17,19,39.30
2020,04,17,17,20,39.30
2020,04,17,17,21,39.30
2020,04,17,17,22,39.30
2020,04,17,17,23,39.30
2020,04,17,17,24,39.40
2020,04,17,17,25,39.50
2020,04,17,17,26,39.50
2020,04,17,17,27,39.60
2020,04,17,17,28,39.60
2020,04,17,17,29,39.60
2020,04,17,17,30,39.60
2020,04,17,17,31,39.60
2020,04,17,17,32,39.60
2020,04,17,17,33,39.50
2020,04,17,17,34,39.40
2020,04,17,17,35,39.30
2020,04,17,17,36,39.20
2020,04,17,17,37,39.20
2020,04,17,17,38,39.20
2020,04,17,17,39,39.20
2020,04,17,17,40,39.20
2020,04,17,17,41,39.30
2020,04,17,17,42,39.40
2020,04,17,17,43,39.50
2020,04,17,17,44,39.60
2020,04,17,17,45,39.60
2020,04,17,17,46,39.70
2020,04,17,17,47,39.70
2020,04,17,17,48,39.70
2020,04,17,17,49,39.70
2020,04,17,17,50,39.70
2020,04,17,17,51,39.70
2020,04,17,17,52,39.60
2020,04,17,17,53,39.60
2020,04,17,17,54,39.50
2020,04,17,17,55,39.50
2020,04,17,17,56,39.40
2020,04,17,17,57,39.40
2020,04,17,17,58,39.40
2020,04,17,17,59,39.30
2020,04,17,18,00,39.30
2020,04,17,18,01,39.30
2020,04,17,18,02,39.30
2020,04,17,18,03,39.30
2020,04,17,18,04,39.30
2020,04,17,18,05,39.20
2020,04,17,18,06,39.20
2020,04,17,18,07,39.20
2020,04,17,18,08,39.10
2020,04,17,18,09,39.10
2020,04,17,18,10,39.10
2020,04,17,18,11,39.10
2020,04,17,18,12,39.10
2020,04,17,18,13,39.10
2020,04,17,18,14,39.10
2020,04,17,18,15,39.10
2020,04,17,18,16,39.10
2020,04,17,18,17,39.20
2020,04,17,18,18,39.10
2020,04,17,18,19,39.10
2020,04,17,18,20,39.10
2020,04,17,18,21,39.20
2020,04,17,18,22,39.20
2020,04,17,18,23,39.20
2020,04,17,18,24,39.30
2020,04,17,18,25,39.30
2020,04,17,18,26,39.30
2020,04,17,18,27,39.30
2020,04,17,18,28,39.30
2020,04,17,18,29,39.30
2020,04,17,18,30,39.30
2020,04,17,18,31,39.30
2020,04,17,18,32,39.30
2020,04,17,18,33,39.30
2020,04,17,18,34,39.20
2020,04,17,18,35,39.10
2020,04,17,18,36,39.00
2020,04,17,18,37,38.90
2020,04,17,18,38,38.90
2020,04,17,18,39,38.80
2020,04,17,18,40,38.80
2020,04,17,18,41,38.70
2020,04,17,18,42,38.60
2020,04,17,18,43,38.60
2020,04,17,18,44,38.50
2020,04,17,18,45,38.40
2020,04,17,18,46,38.40
2020,04,17,18,47,38.30
2020,04,17,18,48,38.30
2020,04,17,18,49,38.30
2020,04,17,18,50,38.30
2020,04,17,18,51,38.20
2020,04,17,18,52,38.20
2020,04,17,18,53,38.20
2020,04,17,18,54,38.20
2020,04,17,18,55,38.20
2020,04,17,18,56,38.20
2020,04,17,18,57,38.10
2020,04,17,18,58,38.10
2020,04,17,18,59,38.10
2020,04,17,19,00,38.10
2020,04,17,19,01,38.10
2020,04,17,19,02,38.10
2020,04,17,19,03,38.10
2020,04,17,19,04,38.10
2020,04,17,19,05,38.10
2020,04,17,19,06,38.10
2020,04,17,19,07,38.10
2020,04,17,19,08,38.10
2020,04,17,19,09,38.10
2020,04,17,19,10,38.10
2020,04,17,19,11,38.10
2020,04,17,19,12,38.10
2020,04,17,19,13,38.10
2020,04,17,19,14,38.10
2020,04,17,19,15,38.10
2020,04,17,19,16,37.90
2020,04,17,19,17,37.90
2020,04,17,19,18,37.80
2020,04,17,19,19,37.80
2020,04,17,19,20,37.80
2020,04,17,19,21,37.80
2020,04,17,19,22,37.80
2020,04,17,19,23,37.80
2020,04,17,19,24,37.80
2020,04,17,19,25,37.80
2020,04,17,19,26,37.80
2020,04,17,19,27,37.80
2020,04,17,19,28,37.70
2020,04,17,19,29,37.70
2020,04,17,19,30,37.70
2020,04,17,19,31,37.70
2020,04,17,19,32,37.70
2020,04,17,19,33,37.70
2020,04,17,19,34,37.70
2020,04,17,19,35,37.70
2020,04,17,19,36,37.70
2020,04,17,19,37,37.70
